When you browse on this site, cookies collect data to enhance your experience and personalize the content and advertising you see.
Visit our Privacy Policy to learn more. By continuing to use the site, you agree to this use of cookies and data.
  • In Switzerland
  • List of Countries
  • For 7 days
  • Water Temperature
  • Satellite Maps
  • Weather Map
  • Weather Widgets
  • user-avatar
    Login

    Hourly Weather Artashat

    Today, 24 May, Friday

    Time Temperature Precipitation Wind Pressure Humidity
    00:00 +12°C° 0.2 mm 2 mps 602 mmHg 68%
    01:00 +12°C° 0.3 mm 2 mps 602 mmHg 68%
    02:00 +12°C° 0.3 mm 2 mps 602 mmHg 69%
    03:00 +12°C° 0 mm 1 mps 602 mmHg 71%
    04:00 +12°C° 0.5 mm 1 mps 602 mmHg 70%
    05:00 +12°C° 0.5 mm 2 mps 602 mmHg 70%
    06:00 +12°C° 0.5 mm 2 mps 602 mmHg 70%
    07:00 +14°C° 0.3 mm 2 mps 603 mmHg 61%
    08:00 +16°C° 0.3 mm 2 mps 603 mmHg 52%
    09:00 +18°C° 0 mm 2 mps 604 mmHg 44%
    10:00 +19°C° 0.4 mm 3 mps 604 mmHg 41%
    11:00 +20°C° 0.4 mm 4 mps 604 mmHg 38%
    12:00 +21°C° 0.4 mm 4 mps 605 mmHg 34%
    13:00 +21°C° 0.7 mm 5 mps 604 mmHg 35%
    14:00 +21°C° 0.7 mm 5 mps 604 mmHg 36%
    15:00 +21°C° 0 mm 5 mps 604 mmHg 38%
    16:00 +21°C° 0.4 mm 4 mps 604 mmHg 39%
    17:00 +21°C° 0.4 mm 3 mps 605 mmHg 39%
    18:00 +21°C° 0.4 mm 2 mps 605 mmHg 40%
    19:00 +19°C° 0.2 mm 2 mps 605 mmHg 43%
    20:00 +17°C° 0.2 mm 2 mps 604 mmHg 46%
    21:00 +15°C° 0.2 mm 2 mps 604 mmHg 49%
    22:00 +15°C° 0.2 mm 2 mps 604 mmHg 50%
    23:00 +14°C° 0.2 mm 2 mps 604 mmHg 52%

    Tomorrow, 25 May, Saturday

    Time Temperature Precipitation Wind Pressure Humidity
    00:00 +14°C° 0.2 mm 2 mps 603 mmHg 54%
    01:00 +13°C° 0.1 mm 2 mps 603 mmHg 54%
    02:00 +13°C° 0.1 mm 2 mps 603 mmHg 54%
    03:00 +13°C° 0.1 mm 2 mps 603 mmHg 54%
    04:00 +13°C° 0.2 mm 2 mps 603 mmHg 54%
    05:00 +14°C° 0.2 mm 2 mps 604 mmHg 54%
    06:00 +14°C° 0.2 mm 2 mps 604 mmHg 54%
    07:00 +16°C° 0.1 mm 2 mps 605 mmHg 47%
    08:00 +18°C° 0.1 mm 3 mps 605 mmHg 40%
    09:00 +21°C° 0.1 mm 3 mps 606 mmHg 32%
    10:00 +22°C° 0.2 mm 4 mps 606 mmHg 29%
    11:00 +23°C° 0.2 mm 5 mps 606 mmHg 26%
    12:00 +26°C° 0.2 mm 6 mps 606 mmHg 23%
    13:00 +24°C° 0.5 mm 6 mps 606 mmHg 24%
    14:00 +24°C° 0.5 mm 6 mps 606 mmHg 25%
    15:00 +24°C° 0.5 mm 6 mps 606 mmHg 27%
    16:00 +23°C° 0.8 mm 5 mps 605 mmHg 31%
    17:00 +22°C° 0.8 mm 4 mps 604 mmHg 35%
    18:00 +21°C° 0.8 mm 3 mps 604 mmHg 39%
    19:00 +19°C° 0.2 mm 3 mps 604 mmHg 41%
    20:00 +18°C° 0.2 mm 3 mps 603 mmHg 43%
    21:00 +16°C° 0.2 mm 3 mps 603 mmHg 44%
    22:00 +14°C° 0.2 mm 3 mps 603 mmHg 47%
    23:00 +13°C° 0.2 mm 3 mps 602 mmHg 49%

    Day after tomorrow, 26 May, Sunday

    Time Temperature Precipitation Wind Pressure Humidity
    00:00 +14°C° 0.2 mm 2 mps 602 mmHg 51%
    01:00 +13°C° 0 mm 2 mps 602 mmHg 52%
    02:00 +13°C° 0 mm 2 mps 601 mmHg 53%
    03:00 +12°C° 0 mm 2 mps 601 mmHg 55%
    04:00 +13°C° 0 mm 2 mps 601 mmHg 54%
    05:00 +13°C° 0 mm 2 mps 602 mmHg 53%
    06:00 +14°C° 0 mm 1 mps 602 mmHg 53%
    07:00 +16°C° 0 mm 1 mps 603 mmHg 46%
    08:00 +18°C° 0 mm 1 mps 603 mmHg 39%
    09:00 +20°C° 0 mm 1 mps 604 mmHg 33%
    10:00 +20°C° 0.2 mm 2 mps 604 mmHg 30%
    11:00 +22°C° 0.2 mm 3 mps 604 mmHg 27%
    12:00 +24°C° 0.2 mm 3 mps 604 mmHg 24%
    13:00 +23°C° 0.1 mm 4 mps 604 mmHg 23%
    14:00 +23°C° 0.1 mm 4 mps 604 mmHg 23%
    15:00 +25°C° 0.1 mm 5 mps 604 mmHg 23%
    16:00 +23°C° 0.1 mm 4 mps 603 mmHg 25%
    17:00 +22°C° 0.1 mm 4 mps 603 mmHg 28%
    18:00 +21°C° 0.1 mm 3 mps 603 mmHg 30%
    19:00 +19°C° 0 mm 3 mps 603 mmHg 33%
    20:00 +17°C° 0 mm 3 mps 603 mmHg 35%
    21:00 +14°C° 0 mm 3 mps 603 mmHg 38%
    22:00 +13°C° 0 mm 3 mps 603 mmHg 38%
    23:00 +12°C° 0 mm 4 mps 602 mmHg 38%

    27 May, Monday

    Time Temperature Precipitation Wind Pressure Humidity
    00:00 +12°C° 0 mm 4 mps 602 mmHg 38%
    01:00 +11°C° 0 mm 4 mps 602 mmHg 43%
    02:00 +10°C° 0 mm 3 mps 602 mmHg 48%
    03:00 +10°C° 0 mm 3 mps 602 mmHg 53%
    04:00 +10°C° 0 mm 3 mps 602 mmHg 54%
    05:00 +10°C° 0 mm 3 mps 603 mmHg 55%
    06:00 +10°C° 0 mm 2 mps 603 mmHg 56%
    07:00 +13°C° 0 mm 2 mps 603 mmHg 51%
    08:00 +14°C° 0 mm 2 mps 604 mmHg 45%
    09:00 +16°C° 0 mm 2 mps 605 mmHg 40%
    10:00 +17°C° 0 mm 2 mps 605 mmHg 37%
    11:00 +18°C° 0 mm 2 mps 605 mmHg 34%
    12:00 +19°C° 0 mm 2 mps 605 mmHg 31%
    13:00 +19°C° 0.1 mm 2 mps 605 mmHg 30%
    14:00 +20°C° 0.1 mm 3 mps 605 mmHg 29%
    15:00 +20°C° 0.1 mm 3 mps 605 mmHg 28%
    16:00 +20°C° 0.4 mm 3 mps 605 mmHg 31%
    17:00 +19°C° 0.4 mm 2 mps 605 mmHg 33%
    18:00 +18°C° 0.4 mm 2 mps 604 mmHg 35%
    19:00 +17°C° 0.2 mm 2 mps 604 mmHg 41%
    20:00 +15°C° 0.2 mm 1 mps 604 mmHg 46%
    21:00 +14°C° 0.2 mm 1 mps 604 mmHg 51%
    22:00 +13°C° 0.3 mm 1 mps 604 mmHg 53%
    23:00 +13°C° 0.3 mm 2 mps 604 mmHg 54%

    28 May, Tuesday

    Time Temperature Precipitation Wind Pressure Humidity
    00:00 +12°C° 0.3 mm 2 mps 604 mmHg 56%
    01:00 +12°C° 0.1 mm 2 mps 604 mmHg 58%
    02:00 +10°C° 0.1 mm 2 mps 604 mmHg 61%
    03:00 +9°C° 0.1 mm 2 mps 604 mmHg 63%
    04:00 +11°C° 0.1 mm 1 mps 604 mmHg 62%
    05:00 +11°C° 0.1 mm 1 mps 604 mmHg 62%
    06:00 +12°C° 0.1 mm 1 mps 605 mmHg 61%
    07:00 +13°C° 0.1 mm 1 mps 605 mmHg 56%
    08:00 +14°C° 0.1 mm 2 mps 606 mmHg 50%
    09:00 +16°C° 0.1 mm 2 mps 606 mmHg 44%
    10:00 +17°C° 0 mm 2 mps 606 mmHg 41%
    11:00 +18°C° 0 mm 2 mps 606 mmHg 38%
    12:00 +19°C° 0 mm 2 mps 607 mmHg 34%
    13:00 +19°C° 0 mm 2 mps 606 mmHg 33%
    14:00 +20°C° 0 mm 3 mps 606 mmHg 32%
    15:00 +20°C° 0 mm 3 mps 606 mmHg 31%
    16:00 +20°C° 0.2 mm 2 mps 606 mmHg 32%
    17:00 +19°C° 0.2 mm 2 mps 606 mmHg 33%
    18:00 +18°C° 0.2 mm 2 mps 605 mmHg 34%
    19:00 +18°C° 0.1 mm 1 mps 605 mmHg 40%
    20:00 +15°C° 0.1 mm 1 mps 605 mmHg 45%
    21:00 +14°C° 0.1 mm 1 mps 605 mmHg 50%
    22:00 +13°C° 0 mm 1 mps 605 mmHg 52%
    23:00 +12°C° 0 mm 1 mps 604 mmHg 54%

    29 May, Wednesday

    Time Temperature Precipitation Wind Pressure Humidity
    00:00 +12°C° 0 mm 1 mps 604 mmHg 56%
    01:00 +11°C° 0 mm 1 mps 604 mmHg 58%
    02:00 +10°C° 0 mm 0 mps 603 mmHg 61%
    03:00 +9°C° 0 mm 0 mps 603 mmHg 64%
    04:00 +10°C° 0 mm 0 mps 604 mmHg 62%
    05:00 +10°C° 0 mm 0 mps 604 mmHg 61%
    06:00 +11°C° 0 mm 0 mps 605 mmHg 60%
    07:00 +13°C° 0 mm 1 mps 605 mmHg 54%
    08:00 +15°C° 0 mm 1 mps 605 mmHg 49%
    09:00 +16°C° 0 mm 2 mps 605 mmHg 44%
    10:00 +17°C° 0 mm 2 mps 606 mmHg 41%
    11:00 +18°C° 0 mm 2 mps 606 mmHg 38%
    12:00 +19°C° 0 mm 2 mps 606 mmHg 35%
    13:00 +20°C° 0 mm 2 mps 606 mmHg 33%
    14:00 +20°C° 0 mm 2 mps 606 mmHg 32%
    15:00 +21°C° 0 mm 3 mps 605 mmHg 30%
    16:00 +20°C° 0.1 mm 2 mps 605 mmHg 32%
    17:00 +20°C° 0.1 mm 2 mps 605 mmHg 33%
    18:00 +19°C° 0.1 mm 2 mps 605 mmHg 34%
    19:00 +19°C° 0.2 mm 1 mps 605 mmHg 40%
    20:00 +16°C° 0.2 mm 1 mps 604 mmHg 46%
    21:00 +14°C° 0.2 mm 1 mps 604 mmHg 51%
    22:00 +14°C° 0.1 mm 1 mps 604 mmHg 53%
    23:00 +13°C° 0.1 mm 1 mps 604 mmHg 56%
    Show more